[[{"header":{"parameterUnit":"m.s-1","parameterCategory":1,"la1":30.2991,"la2":30.254,"lo1":-89.0895,"lo2":-89.0444,"dy":0.0017,"dx":0.0017,"nx":28,"ny":28,"refTime":"2024-06-25T09:00:00:Z","depth":0,"parameterNumber":2,"parameterNumberName":"U-component_of_WINDS"},"data":[0,0,0,0,0,0,0,0,0,0,0,0,0,0,0,0,0,0,0,0,0,0,0,0,0,0,0,0,0,0,0,0,0,0,0,0,0,0,0,0,0,0,0,0,0,0,0,0,0,0,0,0,0,0,0,0,0,0,1.6178,1.6178,0,1.6227,1.6227,1.6228,1.6222,1.6222,1.6221,1.622,1.6274,1.6276,1.6278,0,0,0,0,0,0,0,0,0,0,0,0,0,1.6085,1.6086,1.6178,1.6178,1.6179,1.6227,1.6227,1.6228,1.6223,1.6222,1.6221,1.622,1.6273,1.6275,1.6278,0,0,0,0,0,0,0,0,0,0,0,0,0,1.6128,1.6087,1.6178,1.6182,1.6183,1.6226,1.6227,1.6228,1.6223,1.6222,1.622,1.6219,1.6272,1.6275,1.6278,1.6322,0,0,1.6288,1.629,0,0,0,0,0,0,0,0,1.6126,1.6132,1.6181,1.6182,1.6183,1.6217,1.6214,1.626,1.6223,1.6208,1.622,1.6219,1.6256,1.626,1.6272,1.6324,1.6327,1.6288,1.629,1.6292,1.6293,0,0,0,0,0,0,0,1.6123,1.613,1.6197,1.6181,1.6183,1.6183,1.6188,1.6223,1.6238,1.6209,1.6209,1.6214,1.6256,1.6269,1.6274,1.6327,1.6288,1.6291,1.6293,1.6295,1.6421,1.6423,0,0,0,0,0,0,1.6118,1.6127,1.6196,1.6199,1.6151,1.6186,1.6191,1.6207,1.6237,1.6241,1.6215,1.6214,1.6264,1.627,1.6275,1.6331,1.6292,1.6295,1.6297,1.642,1.6422,1.6423,0,0,0,0,0,0,1.6116,1.6124,1.6194,1.6163,1.6172,1.6188,1.6207,1.6209,1.6222,1.6242,1.6245,1.6225,1.6264,1.6271,1.6311,1.6332,1.6296,1.6299,1.6418,1.642,1.6422,1.644,0,0,0,0,0,0,1.6114,1.6124,1.6139,1.6163,1.6173,1.6227,1.6208,1.6211,1.6227,1.6226,1.6252,1.6256,1.6263,1.6306,1.6314,1.6336,1.6302,1.6416,1.6419,1.6422,1.6438,1.6443,1.6447,0,0,0,0,0,1.611,1.6142,1.614,1.6148,1.6193,1.6228,1.6234,1.6241,1.6229,1.6245,1.6259,1.6255,1.6328,1.631,1.6319,1.6343,1.6415,1.6418,1.6422,1.6436,1.6442,1.6447,0,0,0,0,0,0,1.6121,1.6145,1.6143,1.6183,1.6204,1.6227,1.6248,1.6246,1.6271,1.6269,1.6277,1.6284,1.6325,1.6337,1.6317,1.6388,1.637,1.6376,1.6378,1.6384,1.6388,1.6385,1.6304,0,0,0,0,0,1.6127,1.6152,1.6173,1.6207,1.6217,1.6231,1.6246,1.625,1.6272,1.6281,1.6297,1.6319,1.6348,1.6366,1.6393,1.6439,1.6447,1.646,1.6465,1.6468,1.6473,1.6502,1.6509,1.6434,1.6434,1.6434,0,0,1.6142,1.6159,1.6174,1.6209,1.6226,1.6254,1.6238,1.6267,1.6289,1.6285,1.6325,1.6338,1.6363,1.6407,1.6428,1.6419,1.6495,1.6472,1.6475,1.6478,1.6506,1.6513,1.6519,1.6436,1.6435,1.6435,0,0,1.6183,1.6197,1.6228,1.6245,1.6269,1.6279,1.6286,1.631,1.6319,1.6358,1.6357,1.6383,1.6431,1.645,1.6466,1.6518,1.6516,1.6526,1.655,1.6578,1.6584,1.6589,1.661,1.6617,1.6531,1.6531,1.6531,0,1.6198,1.6239,1.6244,1.6275,1.6292,1.6289,1.6322,1.6338,1.6371,1.6384,1.6374,1.6436,1.6453,1.6502,1.6515,1.6527,1.6538,1.6524,1.6582,1.6588,1.6593,1.6613,1.662,1.6532,1.6532,1.6532,1.6532,0,1.6258,1.6286,1.6309,1.634,1.6359,1.6391,1.6403,1.6422,1.6425,1.6436,1.6478,1.6498,1.653,1.6542,1.6545,1.6594,1.6588,1.658,1.6563,1.6601,1.662,1.6628,1.6534,1.6533,1.6533,1.6533,0,0,1.6306,1.6342,1.635,1.6365,1.6393,1.6416,1.6449,1.648,1.6498,1.6521,1.655,1.6592,1.6585,1.6604,1.6609,1.6632,1.6675,1.6622,1.6623,1.6633,1.6734,1.6741,1.6749,1.6674,1.6675,1.6676,1.6732,0,1.6352,1.6408,1.6415,1.6466,1.6495,1.6494,1.6523,1.6544,1.6556,1.6583,1.6596,1.6626,1.6614,1.6626,1.6649,1.6665,1.6696,1.6661,1.6704,1.6705,1.6699,1.6759,1.6766,1.6817,1.6739,1.6741,1.6742,0,1.6413,1.6438,1.6491,1.6518,1.653,1.6555,1.6586,1.6611,1.6636,1.6644,1.6665,1.6668,1.6704,1.6684,1.6736,1.6712,1.673,1.6741,1.6743,1.6749,1.6727,1.6768,1.6834,1.6842,1.6753,1.6752,1.6751,0,1.6446,1.6493,1.6532,1.6545,1.6576,1.6594,1.6609,1.6633,1.6652,1.6679,1.6692,1.6723,1.6741,1.6766,1.6778,1.6762,1.683,1.6811,1.684,1.6839,1.6855,1.6854,1.6926,1.6863,1.6863,1.6863,1.6863,0,1.6497,1.6531,1.6547,1.6571,1.661,1.6619,1.6657,1.6671,1.6693,1.6721,1.6722,1.6749,1.6763,1.6792,1.6802,1.6845,1.6852,1.6861,1.6864,1.6862,1.6861,1.6875,1.6873,1.6865,1.6865,1.6864,1.6864,0,1.6541,1.6553,1.6596,1.6622,1.663,1.6657,1.6681,1.6706,1.6718,1.6754,1.6763,1.6782,1.6818,1.6832,1.6875,1.6882,1.6932,1.6931,1.6923,1.6925,1.6953,1.6951,1.7039,1.7052,1.6978,1.6978,1.6979,0,1.6574,1.66,1.6629,1.6648,1.6663,1.6693,1.6713,1.6723,1.6744,1.6776,1.6798,1.6833,1.6862,1.6919,1.6938,1.6972,1.6973,1.7001,1.6978,1.6976,1.6976,1.6975,1.6979,1.7006,1.7006,1.7007,1.7008,0,1.6632,1.6637,1.6665,1.6696,1.6719,1.6744,1.6769,1.6784,1.6799,1.6823,1.6859,1.6881,1.6926,1.6962,1.6997,1.7014,1.7015,1.7015,1.7023,1.7023,1.7019,1.7024,1.6937,1.7013,1.7012,1.7012,1.7012,1.7011,1.6672,1.6697,1.6722,1.6754,1.6773,1.6797,1.6822,1.6837,1.6867,1.6904,1.6908,1.6948,1.6975,1.7023,1.7041,1.7074,1.7066,1.7078,1.7082,1.7085,1.7089,1.7012,1.708,1.708,1.7079,1.7079,1.7079,0,1.6733,1.6749,1.6778,1.6813,1.6839,1.6835,1.6863,1.6886,1.692,1.6945,1.6973,1.7016,1.7052,1.7074,1.711,1.7132,1.7134,1.7142,1.7141,1.7146,1.7092,1.7081,1.714,1.714,1.714,1.714,1.714,1.714,1.6767,1.6808,1.6817,1.6869,1.6886,1.6924,1.6941,1.6963,1.6983,1.7031,1.706,1.7074,1.7099,1.7138,1.7171,1.7177,1.7191,1.72,1.7206,1.7155,1.7149,1.7143,1.7134,1.7203,1.7203,1.7258,1.7259,1.7259]},{"header":{"parameterUnit":"m.s-1","parameterCategory":1,"la1":30.2991,"la2":30.254,"lo1":-89.0895,"lo2":-89.0444,"dy":0.0017,"dx":0.0017,"nx":28,"ny":28,"refTime":"2024-06-25T09:00:00:Z","depth":0,"parameterNumber":3,"parameterNumberName":"V-component_of_WINDS"},"data":[0,0,0,0,0,0,0,0,0,0,0,0,0,0,0,0,0,0,0,0,0,0,0,0,0,0,0,0,0,0,0,0,0,0,0,0,0,0,0,0,0,0,0,0,0,0,0,0,0,0,0,0,0,0,0,0,0,0,-0.1495,-0.1494,0,-0.1401,-0.14,-0.1399,-0.1394,-0.1395,-0.1396,-0.1397,-0.13,-0.1296,-0.1293,0,0,0,0,0,0,0,0,0,0,0,0,0,-0.1673,-0.167,-0.1495,-0.1494,-0.1493,-0.1401,-0.14,-0.1398,-0.1394,-0.1395,-0.1397,-0.1398,-0.1301,-0.1297,-0.1292,0,0,0,0,0,0,0,0,0,0,0,0,0,-0.1589,-0.1668,-0.1496,-0.148,-0.1477,-0.1401,-0.14,-0.1398,-0.1394,-0.1395,-0.1397,-0.1398,-0.1302,-0.1297,-0.1292,-0.1225,0,0,-0.1275,-0.1273,0,0,0,0,0,0,0,0,-0.1594,-0.1582,-0.1483,-0.1481,-0.1478,-0.1411,-0.1427,-0.134,-0.1393,-0.1425,-0.1397,-0.1399,-0.1335,-0.1327,-0.1306,-0.122,-0.1216,-0.1275,-0.1271,-0.1269,-0.1268,0,0,0,0,0,0,0,-0.1599,-0.1586,-0.1458,-0.1482,-0.1478,-0.1478,-0.1467,-0.141,-0.1372,-0.1423,-0.1422,-0.1411,-0.1334,-0.1311,-0.1304,-0.1215,-0.1275,-0.127,-0.1267,-0.1265,-0.1073,-0.1071,0,0,0,0,0,0,-0.1608,-0.1591,-0.1461,-0.1455,-0.1541,-0.1473,-0.1462,-0.1431,-0.1373,-0.1366,-0.141,-0.1411,-0.132,-0.131,-0.13,-0.122,-0.1269,-0.1264,-0.1261,-0.1075,-0.1073,-0.1071,0,0,0,0,0,0,-0.1612,-0.1597,-0.1465,-0.1523,-0.1506,-0.1468,-0.1433,-0.1428,-0.1405,-0.1363,-0.1356,-0.1393,-0.1321,-0.1308,-0.1245,-0.1217,-0.1262,-0.1257,-0.1077,-0.1074,-0.1072,-0.1059,0,0,0,0,0,0,-0.1617,-0.1598,-0.1572,-0.1522,-0.1503,-0.141,-0.1432,-0.1425,-0.1396,-0.1397,-0.1346,-0.1339,-0.1321,-0.1253,-0.1239,-0.121,-0.1252,-0.1079,-0.1076,-0.1073,-0.1062,-0.1056,-0.1051,0,0,0,0,0,-0.1624,-0.1571,-0.1571,-0.1555,-0.1469,-0.1409,-0.1397,-0.1378,-0.1393,-0.1367,-0.1341,-0.134,-0.1222,-0.1246,-0.1231,-0.12,-0.1081,-0.1077,-0.1073,-0.1064,-0.1057,-0.1052,0,0,0,0,0,0,-0.1617,-0.1564,-0.1563,-0.1493,-0.1456,-0.1408,-0.1374,-0.1371,-0.1328,-0.1331,-0.1309,-0.1297,-0.1235,-0.1211,-0.1239,-0.1134,-0.1153,-0.1146,-0.1152,-0.1145,-0.114,-0.1148,-0.1248,0,0,0,0,0,-0.1608,-0.1563,-0.1519,-0.1461,-0.1443,-0.1412,-0.1384,-0.1373,-0.1333,-0.1317,-0.1286,-0.1247,-0.1202,-0.1172,-0.1127,-0.1058,-0.1048,-0.103,-0.1025,-0.102,-0.1015,-0.0979,-0.0971,-0.1057,-0.1057,-0.1057,0,0,-0.1588,-0.1553,-0.1526,-0.1459,-0.1429,-0.1384,-0.1398,-0.1349,-0.1315,-0.1309,-0.1249,-0.1224,-0.118,-0.1114,-0.1084,-0.1092,-0.0989,-0.1015,-0.1012,-0.1009,-0.0974,-0.0966,-0.0959,-0.1054,-0.1055,-0.1055,0,0,-0.1528,-0.1497,-0.1447,-0.1417,-0.1371,-0.1351,-0.1339,-0.1292,-0.1277,-0.1215,-0.1211,-0.1171,-0.1092,-0.1061,-0.1035,-0.0967,-0.0966,-0.0953,-0.0927,-0.0892,-0.0886,-0.0879,-0.0857,-0.0849,-0.0947,-0.0947,-0.0947,0,-0.1509,-0.144,-0.1421,-0.1373,-0.1345,-0.1339,-0.1289,-0.126,-0.1202,-0.1183,-0.1193,-0.1096,-0.1066,-0.0994,-0.0978,-0.0956,-0.0944,-0.0959,-0.0888,-0.0882,-0.0876,-0.0854,-0.0846,-0.0946,-0.0946,-0.0947,-0.0947,0,-0.142,-0.1373,-0.1338,-0.1283,-0.1251,-0.1202,-0.1177,-0.1146,-0.1138,-0.1118,-0.1057,-0.102,-0.097,-0.0951,-0.0942,-0.0879,-0.0886,-0.0893,-0.0912,-0.0867,-0.0847,-0.0838,-0.0945,-0.0945,-0.0945,-0.0946,0,0,-0.1353,-0.129,-0.1278,-0.1255,-0.1205,-0.1168,-0.112,-0.1071,-0.1046,-0.1007,-0.0967,-0.0902,-0.0908,-0.0879,-0.0867,-0.0836,-0.0788,-0.0846,-0.0845,-0.0839,-0.0719,-0.0716,-0.0706,-0.0787,-0.0785,-0.0784,-0.0723,0,-0.1289,-0.1203,-0.1186,-0.1112,-0.1069,-0.1064,-0.1022,-0.0988,-0.0968,-0.0929,-0.0907,-0.0862,-0.0872,-0.0855,-0.0825,-0.08,-0.0764,-0.0804,-0.075,-0.0749,-0.0763,-0.0695,-0.0691,-0.0636,-0.0715,-0.0714,-0.0713,0,-0.1203,-0.1164,-0.1086,-0.1044,-0.1026,-0.0988,-0.0944,-0.0906,-0.0868,-0.0856,-0.0824,-0.0816,-0.0767,-0.0788,-0.0721,-0.0749,-0.0727,-0.0711,-0.0709,-0.0704,-0.0729,-0.069,-0.0617,-0.061,-0.0699,-0.07,-0.0701,0,-0.1165,-0.1092,-0.1036,-0.1016,-0.0966,-0.094,-0.0918,-0.0881,-0.0854,-0.0815,-0.0797,-0.0753,-0.0729,-0.0695,-0.0676,-0.0693,-0.0611,-0.063,-0.0601,-0.0602,-0.0584,-0.0586,-0.0508,-0.0567,-0.0567,-0.0568,-0.0568,0,-0.1097,-0.1049,-0.1019,-0.0985,-0.0933,-0.0914,-0.0863,-0.0841,-0.0809,-0.0771,-0.0763,-0.0728,-0.0704,-0.0666,-0.0651,-0.0599,-0.0588,-0.0578,-0.0574,-0.0579,-0.0581,-0.0565,-0.0569,-0.0565,-0.0566,-0.0566,-0.0567,0,-0.1045,-0.1022,-0.0962,-0.092,-0.0909,-0.0872,-0.0837,-0.0804,-0.0785,-0.0738,-0.0726,-0.0695,-0.065,-0.0628,-0.0571,-0.0561,-0.0504,-0.0502,-0.0517,-0.0516,-0.0489,-0.0492,-0.0399,-0.0387,-0.0452,-0.0452,-0.0451,0,-0.1003,-0.0967,-0.0923,-0.0897,-0.0875,-0.0834,-0.0807,-0.0787,-0.0759,-0.0715,-0.0688,-0.0643,-0.0606,-0.0535,-0.0508,-0.0466,-0.0464,-0.0434,-0.0457,-0.0464,-0.0466,-0.0469,-0.0466,-0.0431,-0.043,-0.0429,-0.0429,0,-0.0933,-0.0924,-0.0885,-0.0843,-0.0811,-0.0777,-0.0743,-0.0723,-0.0698,-0.0668,-0.0622,-0.0594,-0.0538,-0.0494,-0.045,-0.0428,-0.0425,-0.0422,-0.0413,-0.0418,-0.043,-0.0425,-0.0507,-0.0424,-0.0425,-0.0425,-0.0425,-0.0426,-0.0886,-0.0855,-0.082,-0.0777,-0.075,-0.072,-0.0688,-0.0665,-0.0627,-0.0581,-0.0572,-0.0524,-0.0489,-0.043,-0.0407,-0.037,-0.0377,-0.0363,-0.036,-0.0358,-0.0358,-0.0435,-0.0362,-0.0362,-0.0362,-0.0362,-0.0362,0,-0.0817,-0.0795,-0.0756,-0.071,-0.0677,-0.0678,-0.0641,-0.0614,-0.0573,-0.054,-0.0505,-0.0454,-0.0412,-0.0383,-0.0341,-0.0317,-0.0315,-0.0307,-0.0309,-0.0304,-0.0353,-0.0366,-0.0309,-0.0309,-0.0309,-0.031,-0.031,-0.031,-0.0777,-0.0726,-0.0713,-0.0649,-0.0626,-0.0581,-0.056,-0.0532,-0.0507,-0.0451,-0.0416,-0.0398,-0.0367,-0.0323,-0.0285,-0.0278,-0.0264,-0.0256,-0.0249,-0.0295,-0.0301,-0.0306,-0.0318,-0.0252,-0.0252,-0.0203,-0.0203,-0.0203]}]]